Powrót do katalogu

STARLINK-31510

AktywnyŁącznośćVLEO
NORAD 59575·PAYLOAD·🇺🇸 United States

Wystrzelony Apr 23, 2024 z Cape Canaveral Space Force Station

Loading…

Następne Przeloty (najbliższe 24 godziny)

TLE

ŚwieżeSource: CelesTrak SupGP

Epoka: Sep 15, 2026, 03:12 UTC

1 59575C 24076M   26258.13381944  .00019693  00000+0  71305-3 0  2580
2 59575  43.0045  15.7540 0001884 271.0840 125.9135 15.27578694    15

Śledź STARLINK-31510 w czasie rzeczywistym z AllMySat

Download on the App Store